SCP
0 0 0 0 0 0 0 0 0 0 0 0 -0 -0 0 0 0 0 -0 -0 0 0 0 0 0 0 0 0 0 0 0 0 0 0 0 0 -0 -0 -0 -0 -0 -0 0 0
0 0 0 0 0 0 0 0 0 0 0 0 0 0 0 0 0 0 0 0 -0 -0 -0 -0 -0 -0 -0 0 0 0 0 0 0 0 0 0 0 -0 -0 -0 -0 0 0 0
0 0 0 0 0 0 0 0 0 0 0 0 0 0 0 0 0 0 0 0 -0 -0 -0 -0 -0 -0 -0 -0 0 0 0 0 0 0 0 0 0 0 -0 -0 -0 -0 -0 -0
0 0 0 0 0 0 0 0 0 0 0 0 0 0 0 0 0 0 0 0 0 0 -0 0 0 -0 -0 -0 0 0 0 0 0 0 0 0 0 0 0 -0 -0 -0 -0 -0
0 0 0 0 0 0 0 0 0 0 0 0 0 0 0 0 0 0 0 -0 -0 0 0 0 0 0 0 0 -0 -0 0 0 0 0 0 0 0 0 0 0 0 0 0 0
0 0 0 0 0 0 0 0 0 0 0 0 0 0 0 0 0 0 0 0 0 0 0 0 0 0 0 0 0 0 0 0 0 0 0 0 0 0 0 0 0 0 0 0
0 0 0 0 0 0 0 0 0 0 0 0 0 0 0 0 0 0 0 0 0 0 0 0 0 0 0 0 0 0 0 0 0 0 0 0 0 0 0 0 0 0 0 0
0 0 0 0 0 0 0 0 0 0 0 0 0 0 0 0 0 0 0 0 0 0 0 0 0 0 0 0 0 0 0 0 0 0 0 0 0 0 0 0 0 0 0 0
0 0 0 0 0 0 0 0 0 0 0 0 0 0 0 0 0 0 0 0 0 0 0 0 0 0 0 0 0 0 0 0 0 0 0 0 0 0 0 0 0 0 0 0
0 0 0 0 0 0 0 0 0 0 0 0 0 0 0 0 0 0 0 0 0 0 0 0 0 0 0 0 0 0 0 0 0 0 0 0 0 0 0 0 0 0 0 0
0 0 0 0 0 0 0 0 0 0 0 0 0 0 0 0 0 0 0 0 0 0 0 0 0 0 0 0 0 0 0 0 0 0 0 0 0 0 0 0 0 0 0 0
0 0 0 0 0 0 0 0 0 0 0 0 0 0 0 0 0 0 0 0 0 0 0 0 0 0 0 0 0 0 0 0 0 0 0 0 0 0 0 0 0 0 0 0
0 0 0 0 0 0 0 0 0 0 0 0 0 0 0 0 0 0 0 0 0 0 0 0 0 0 0 0 0 0 0 0 0 0 0 0 0 0 0 0 0 -0 -0 0
0 0 0 0 0 0 0 0 0 0 0 0 0 0 0 0 0 0 0 0 0 0 0 0 0 0 0 0 0 0 0 0 0 0 0 0 0 0 0 0 0 0 0 0
0 0 0 0 0 0 0 0 0 0 0 0 0 0 0 0 0 0 0 0 0 0 0 0 0 0 0 0 0 0 0 0 0 0 0 0 0 0 0 0 0 0 0 0
0 0 0 0 0 0 0 0 0 0 0 0 0 0 0 0 0 0 0 0 0 0 0 0 0 0 0 0 0 0 0 0 0 0 0 0 0 0 0 0 0 0 0 0
0 0 0 0 0 0 0 0 0 0 0 0 0 0 0 0 0 0 0 0 0 0 0 0 0 0 0 0 -0 0 0 0 0 0 0 0 0 0 0 0 0 0 0 0
0 0 0 0 0 0 0 0 0 0 0 0 0 0 0 0 0 0 0 0 0 -0 0 0 -0 -0 -0 -0 -0 0 0 0 0 0 0 0 0 0 0 0 0 0 0 0
0 0 0 0 0 0 0 0 0 0 0 0 0 0 0 0 0 0 0 0 -0 -0 -0 -0 -0 -0 -0 -0 -0 0 0 0 0 0 0 0 0 0 0 0 0 0 0 -0
0 0 0 0 0 0 0 0 0 0 0 0 0 0 0 0 0 0 0 -0 -0 -0 -0 -0 -0 -0 -0 -0 -0 0 0 0 0 0 0 0 0 0 0 0 0 0 0 0
0 0 0 0 0 0 0 0 0 0 0 0 0 0 0 0 0 0 0 -0 0 0 0 0 -0 -0 -0 -0 -0 0 0 0 0 0 0 0 0 0 0 0 0 0 0 0
0 0 0 0 0 0 0 0 0 0 0 0 0 0 0 0 0 0 0 -0 0 0 0 0 -0 -0 -0 -0 0 0 0 0 0 0 0 0 0 0 0 0 0 0 0 0
0 0 0 0 0 0 0 0 0 0 0 0 0 0 0 0 0 0 0 0 0 0 0 0 -0 -0 0 0 0 0 0 0 0 0 0 0 0 0 0 0 0 0 0 0
0 0 0 0 0 0 0 0 0 0 0 0 0 0 0 0 0 0 0 0 0 0 0 0 0 0 0 0 0 0 0 0 0 0 0 0 0 0 0 0 -0 -0 -0 0
0 0 0 0 0 0 0 0 0 0 0 0 0 0 0 0 0 0 0 0 0 0 0 0 0 0 0 0 0 0 0 0 0 0 0 0 0 0 0 0 0 0 0 -0
0 0 0 0 0 0 0 0 0 0 0 0 0 0 0 0 0 0 0 0 0 0 0 0 0 0 0 0 0 0 0 0 0 0 0 0 0 0 0 0 0 0 0 0
0 0 0 0 0 0 0 0 0 0 0 0 0 0 0 0 0 0 0 0 0 0 0 0 0 0 0 0 0 0 0 0 0 0 0 0 0 0 0 0 0 0 0 0
Wind_Speed_500mb
33 35 34 33 35 49 47 45 41 47 48 46 40 25 4 6 5 9 14 13 11 16 19 22 29 35 41 44 48 53 59 62 66 69 71 72 74 76 78 78 76 73 69 67
28 32 36 40 47 48 45 47 49 49 52 45 14 8 9 10 10 14 16 18 19 21 21 22 24 30 39 43 46 53 59 65 71 77 81 87 92 96 93 92 88 86 83 80
30 28 30 23 40 44 45 49 48 45 26 12 7 7 14 19 22 26 26 28 27 25 24 24 27 35 45 50 57 63 66 71 75 80 84 87 89 93 97 102 108 106 99 95
19 16 31 24 18 19 31 35 26 8 9 8 6 19 25 26 30 32 36 40 39 36 35 31 32 33 35 46 64 69 73 78 78 79 83 87 91 96 102 106 108 110 115 114
13 23 35 45 33 30 26 32 2 11 17 6 20 31 39 26 29 36 37 40 43 41 35 36 33 34 63 75 74 68 67 73 78 85 91 99 104 108 110 116 118 120 121 123
10 16 22 16 6 6 3 19 13 15 10 10 19 16 24 42 40 39 39 43 41 42 56 50 57 72 76 80 80 76 72 75 75 77 84 98 111 120 125 129 132 133 135 133
27 25 21 14 7 7 13 15 20 18 12 29 21 32 49 48 43 38 40 40 40 46 57 66 74 82 90 86 76 76 84 93 97 92 87 91 96 101 105 109 114 132 139 141
13 21 26 6 12 13 5 10 21 22 43 41 44 43 40 42 43 40 39 49 54 62 71 79 83 87 94 101 97 99 102 106 108 108 108 106 99 101 95 95 100 111 111 125
14 13 12 20 23 27 33 41 57 58 54 45 44 41 36 38 37 39 45 51 56 67 76 80 83 88 100 108 106 107 106 108 109 110 107 101 94 94 93 88 90 96 94 99
30 34 47 58 63 66 67 64 67 60 50 43 39 38 42 42 41 44 47 52 60 69 77 85 90 96 99 99 98 102 107 109 105 95 93 87 83 79 79 80 82 84 83 86
31 42 52 60 69 70 68 66 66 56 50 52 39 41 38 41 41 44 51 56 61 68 79 88 93 95 92 92 93 97 99 97 94 89 82 83 81 80 79 82 82 88 89 91
30 53 46 54 65 54 48 59 57 54 50 47 40 38 38 38 41 45 52 55 63 72 81 87 88 89 88 86 86 89 92 88 85 85 84 82 83 86 77 75 77 79 83 89
56 71 71 72 71 62 58 59 54 52 45 41 39 39 37 39 42 48 50 56 65 75 80 79 78 83 79 80 80 78 79 81 83 86 86 84 82 82 89 91 78 75 76 77
59 58 60 66 49 48 49 47 47 42 38 36 36 38 37 40 45 46 51 58 67 72 70 68 73 78 76 75 72 76 77 79 81 81 81 81 82 84 85 88 90 94 79 68
63 54 60 57 52 52 41 41 37 35 35 33 34 35 37 40 44 49 53 59 64 63 60 62 68 72 73 71 73 75 75 75 75 76 79 81 85 85 85 83 84 87 87 72
45 39 33 34 36 38 35 36 33 32 31 32 34 37 38 42 48 51 54 53 57 57 53 58 63 68 70 70 74 75 73 68 68 74 77 78 76 75 78 81 81 78 73 66
31 29 30 29 29 32 29 30 30 30 32 34 36 42 43 46 51 53 51 46 48 47 46 52 60 64 64 67 67 70 69 68 63 64 65 67 70 69 68 70 66 62 62 59
31 32 30 28 25 27 27 28 30 32 34 38 42 45 47 49 53 53 48 46 43 40 37 45 52 56 56 61 64 64 61 59 58 57 58 58 55 52 49 48 42 49 50 44
28 28 26 24 24 25 27 29 33 37 38 42 47 50 51 50 48 47 44 41 38 40 38 40 45 47 52 57 60 57 54 53 51 50 51 51 49 46 44 44 42 39 37 35
22 21 21 22 23 26 29 32 39 43 41 47 51 52 52 46 43 43 39 35 30 34 37 39 42 44 49 54 56 53 49 47 46 46 47 48 48 48 45 42 40 38 36 33
17 17 19 22 26 30 35 39 44 45 44 46 49 50 49 46 40 36 34 29 22 28 29 31 36 41 44 47 48 52 49 45 43 43 46 48 48 51 51 45 43 42 40 38
15 18 23 28 33 35 36 40 43 45 44 43 42 42 42 39 31 28 26 28 24 25 25 27 31 35 39 39 40 43 46 46 43 42 41 43 45 49 53 53 52 49 47 46
17 21 24 29 34 37 35 36 37 38 37 36 36 32 31 28 24 22 20 20 23 21 23 24 27 30 32 33 34 36 38 41 43 44 43 42 42 42 43 45 46 46 46 45
18 21 23 26 28 31 32 29 29 28 29 27 25 22 20 18 19 19 19 19 19 19 22 24 25 28 29 28 29 30 32 35 36 38 39 38 37 37 37 38 38 37 36 36
13 14 16 19 22 24 25 24 22 18 18 16 16 15 15 16 16 15 17 16 16 17 18 20 22 23 24 24 26 27 28 29 31 32 32 32 33 33 33 33 34 34 33 32
6 9 13 16 18 20 20 17 16 15 14 12 10 13 12 12 12 13 13 14 15 16 18 19 19 20 21 22 23 24 25 25 25 25 25 25 25 25 25 25 24 24 25 24
3 7 10 12 15 16 16 15 14 13 12 12 11 12 12 11 11 12 12 14 15 16 17 19 20 22 23 23 23 24 24 24 25 25 24 24 24 23 22 21 21 20 19 18
Wind_Direction_500mb
269 278 290 291 283 272 270 270 267 279 282 283 298 324 13 192 242 265 265 269 300 308 311 323 326 327 327 325 323 321 321 322 321 320 319 317 317 318 319 320 320 321 320 317
274 273 269 268 266 268 274 275 273 273 271 275 338 327 299 313 325 326 310 292 283 279 285 292 299 309 314 315 312 312 312 312 311 311 311 311 313 314 313 313 313 314 315 315
264 280 298 277 255 261 261 266 269 275 302 31 42 325 327 326 318 314 315 307 285 289 294 291 292 307 314 312 312 311 309 308 307 305 302 302 302 302 303 305 308 309 308 308
275 293 256 264 287 297 282 284 287 269 139 123 351 324 314 316 301 303 307 312 300 291 293 293 297 299 292 298 308 307 306 305 303 301 300 299 300 299 299 299 299 299 301 302
250 246 276 292 290 290 260 280 244 213 177 174 337 329 305 309 318 313 307 300 297 291 291 295 303 298 309 313 312 306 298 300 302 302 300 299 297 295 294 294 293 292 293 293
196 248 263 309 64 44 26 270 174 171 169 316 322 293 294 313 306 302 303 302 303 285 291 299 300 309 313 312 311 307 303 298 294 290 289 292 295 296 295 292 290 289 286 285
236 248 259 274 96 137 249 295 156 168 269 289 278 276 291 297 294 294 299 302 293 295 293 301 308 311 311 312 310 307 302 300 297 294 289 285 286 285 287 287 287 288 286 282
238 257 267 84 130 223 285 139 174 257 298 289 281 285 287 293 294 301 295 297 297 298 301 303 307 309 309 310 312 308 306 304 301 299 296 293 289 287 285 283 283 284 286 287
228 243 209 186 250 260 268 276 285 291 293 289 285 277 285 289 287 286 293 298 300 301 303 306 308 311 311 312 312 310 307 306 305 304 302 301 297 292 289 285 281 279 278 279
254 251 260 271 272 273 274 277 285 287 284 277 270 274 281 283 284 288 295 298 300 304 307 309 310 313 314 314 314 311 309 308 308 308 308 307 303 295 289 286 284 281 280 278
256 258 266 263 265 268 270 273 276 282 278 276 265 269 276 280 284 290 295 301 304 306 307 309 314 315 316 317 316 313 311 310 310 309 306 302 296 292 289 286 282 282 280 279
257 260 261 270 277 282 284 283 276 272 265 265 262 269 271 277 286 293 297 301 306 308 310 315 317 316 319 319 317 315 312 310 309 306 302 299 296 294 295 289 288 284 281 278
259 260 263 271 278 283 285 280 269 261 252 255 263 267 273 282 289 293 300 307 310 312 315 318 317 317 324 323 320 314 313 313 312 310 305 299 296 295 295 300 296 290 286 283
259 264 269 268 276 283 274 268 256 252 253 255 258 266 274 284 290 298 305 311 314 314 317 318 319 325 330 323 324 323 319 316 312 309 304 300 297 296 295 294 295 299 305 294
270 265 262 269 269 271 262 254 250 252 256 262 266 271 280 287 293 301 311 314 312 316 320 322 325 330 329 333 329 325 322 321 321 316 310 306 303 300 298 296 295 299 310 315
265 271 269 265 266 263 255 254 258 260 261 263 270 277 283 289 296 306 310 312 314 318 323 325 329 332 336 336 334 328 324 324 327 322 314 311 310 306 304 301 301 305 312 323
266 272 270 264 258 257 258 259 258 262 264 271 278 282 288 295 300 304 310 315 313 317 325 326 332 335 340 340 332 331 331 329 328 326 326 324 320 316 315 313 313 318 324 332
258 260 263 259 248 249 258 264 266 269 274 279 280 284 292 296 300 305 312 312 310 314 324 329 333 334 346 343 339 333 333 333 333 334 335 333 333 332 332 333 329 323 323 323
257 253 251 249 252 256 260 266 271 275 281 286 288 290 291 294 300 304 305 305 308 314 325 330 332 339 351 352 345 340 342 342 343 345 347 348 350 352 351 351 353 352 350 348
243 242 246 254 261 267 272 277 280 283 286 284 284 287 292 297 297 294 294 296 303 311 325 332 333 346 357 356 354 353 350 352 354 357 1 3 4 4 5 7 8 11 15 22
237 249 260 269 274 279 283 283 283 285 286 285 288 290 291 292 289 285 285 287 297 309 322 330 342 351 358 357 1 5 5 3 4 7 11 13 17 22 23 25 27 30 34 40
249 267 280 286 290 292 291 290 290 291 292 291 289 288 287 287 283 275 275 284 297 311 324 336 348 354 356 355 5 10 14 15 13 13 17 23 29 35 38 41 45 47 49 53
277 287 294 297 300 301 303 300 296 295 295 294 290 286 281 280 272 276 279 276 297 311 323 335 342 346 350 356 7 12 16 20 22 26 27 28 31 38 44 49 53 56 57 58
301 306 309 311 312 312 313 311 305 303 299 296 292 285 277 274 270 271 279 292 305 316 323 334 340 342 343 350 0 8 15 19 23 27 31 35 38 40 43 45 48 52 57 63
304 312 321 326 326 323 317 317 316 320 312 309 298 285 279 274 272 269 287 298 310 317 330 336 336 336 338 348 355 360 5 9 12 18 23 28 32 36 39 42 45 47 50 53
334 343 344 342 338 335 334 334 327 320 314 312 294 297 290 286 287 291 298 307 311 322 329 331 332 336 344 349 353 355 356 357 360 3 6 11 16 20 25 30 34 38 40 42
21 2 357 352 352 352 349 343 340 334 328 322 313 304 308 303 302 303 309 313 321 328 330 333 337 340 342 345 348 349 350 351 351 352 355 357 358 359 0 3 5 6 8 9
Wind_Speed_850mb
33 35 34 33 35 49 47 45 41 47 48 46 40 25 4 6 5 9 14 13 11 16 19 22 29 35 41 44 48 53 59 62 66 69 71 72 74 76 78 78 76 73 69 67
28 32 36 40 47 48 45 47 49 49 52 45 14 8 9 10 10 14 16 18 19 21 21 22 24 30 39 43 46 53 59 65 71 77 81 87 92 96 93 92 88 86 83 80
30 28 30 23 40 44 45 49 48 45 26 12 7 7 14 19 22 26 26 28 27 25 24 24 27 35 45 50 57 63 66 71 75 80 84 87 89 93 97 102 108 106 99 95
19 16 31 24 18 19 31 35 26 8 9 8 6 19 25 26 30 32 36 40 39 36 35 31 32 33 35 46 64 69 73 78 78 79 83 87 91 96 102 106 108 110 115 114
13 23 35 45 33 30 26 32 2 11 17 6 20 31 39 26 29 36 37 40 43 41 35 36 33 34 63 75 74 68 67 73 78 85 91 99 104 108 110 116 118 120 121 123
10 16 22 16 6 6 3 19 13 15 10 10 19 16 24 42 40 39 39 43 41 42 56 50 57 72 76 80 80 76 72 75 75 77 84 98 111 120 125 129 132 133 135 133
27 25 21 14 7 7 13 15 20 18 12 29 21 32 49 48 43 38 40 40 40 46 57 66 74 82 90 86 76 76 84 93 97 92 87 91 96 101 105 109 114 132 139 141
13 21 26 6 12 13 5 10 21 22 43 41 44 43 40 42 43 40 39 49 54 62 71 79 83 87 94 101 97 99 102 106 108 108 108 106 99 101 95 95 100 111 111 125
14 13 12 20 23 27 33 41 57 58 54 45 44 41 36 38 37 39 45 51 56 67 76 80 83 88 100 108 106 107 106 108 109 110 107 101 94 94 93 88 90 96 94 99
30 34 47 58 63 66 67 64 67 60 50 43 39 38 42 42 41 44 47 52 60 69 77 85 90 96 99 99 98 102 107 109 105 95 93 87 83 79 79 80 82 84 83 86
31 42 52 60 69 70 68 66 66 56 50 52 39 41 38 41 41 44 51 56 61 68 79 88 93 95 92 92 93 97 99 97 94 89 82 83 81 80 79 82 82 88 89 91
30 53 46 54 65 54 48 59 57 54 50 47 40 38 38 38 41 45 52 55 63 72 81 87 88 89 88 86 86 89 92 88 85 85 84 82 83 86 77 75 77 79 83 89
56 71 71 72 71 62 58 59 54 52 45 41 39 39 37 39 42 48 50 56 65 75 80 79 78 83 79 80 80 78 79 81 83 86 86 84 82 82 89 91 78 75 76 77
59 58 60 66 49 48 49 47 47 42 38 36 36 38 37 40 45 46 51 58 67 72 70 68 73 78 76 75 72 76 77 79 81 81 81 81 82 84 85 88 90 94 79 68
63 54 60 57 52 52 41 41 37 35 35 33 34 35 37 40 44 49 53 59 64 63 60 62 68 72 73 71 73 75 75 75 75 76 79 81 85 85 85 83 84 87 87 72
45 39 33 34 36 38 35 36 33 32 31 32 34 37 38 42 48 51 54 53 57 57 53 58 63 68 70 70 74 75 73 68 68 74 77 78 76 75 78 81 81 78 73 66
31 29 30 29 29 32 29 30 30 30 32 34 36 42 43 46 51 53 51 46 48 47 46 52 60 64 64 67 67 70 69 68 63 64 65 67 70 69 68 70 66 62 62 59
31 32 30 28 25 27 27 28 30 32 34 38 42 45 47 49 53 53 48 46 43 40 37 45 52 56 56 61 64 64 61 59 58 57 58 58 55 52 49 48 42 49 50 44
28 28 26 24 24 25 27 29 33 37 38 42 47 50 51 50 48 47 44 41 38 40 38 40 45 47 52 57 60 57 54 53 51 50 51 51 49 46 44 44 42 39 37 35
22 21 21 22 23 26 29 32 39 43 41 47 51 52 52 46 43 43 39 35 30 34 37 39 42 44 49 54 56 53 49 47 46 46 47 48 48 48 45 42 40 38 36 33
17 17 19 22 26 30 35 39 44 45 44 46 49 50 49 46 40 36 34 29 22 28 29 31 36 41 44 47 48 52 49 45 43 43 46 48 48 51 51 45 43 42 40 38
15 18 23 28 33 35 36 40 43 45 44 43 42 42 42 39 31 28 26 28 24 25 25 27 31 35 39 39 40 43 46 46 43 42 41 43 45 49 53 53 52 49 47 46
17 21 24 29 34 37 35 36 37 38 37 36 36 32 31 28 24 22 20 20 23 21 23 24 27 30 32 33 34 36 38 41 43 44 43 42 42 42 43 45 46 46 46 45
18 21 23 26 28 31 32 29 29 28 29 27 25 22 20 18 19 19 19 19 19 19 22 24 25 28 29 28 29 30 32 35 36 38 39 38 37 37 37 38 38 37 36 36
13 14 16 19 22 24 25 24 22 18 18 16 16 15 15 16 16 15 17 16 16 17 18 20 22 23 24 24 26 27 28 29 31 32 32 32 33 33 33 33 34 34 33 32
6 9 13 16 18 20 20 17 16 15 14 12 10 13 12 12 12 13 13 14 15 16 18 19 19 20 21 22 23 24 25 25 25 25 25 25 25 25 25 25 24 24 25 24
3 7 10 12 15 16 16 15 14 13 12 12 11 12 12 11 11 12 12 14 15 16 17 19 20 22 23 23 23 24 24 24 25 25 24 24 24 23 22 21 21 20 19 18
Wind_Direction_850mb
269 278 290 291 283 272 270 270 267 279 282 283 298 324 13 192 242 265 265 269 300 308 311 323 326 327 327 325 323 321 321 322 321 320 319 317 317 318 319 320 320 321 320 317
274 273 269 268 266 268 274 275 273 273 271 275 338 327 299 313 325 326 310 292 283 279 285 292 299 309 314 315 312 312 312 312 311 311 311 311 313 314 313 313 313 314 315 315
264 280 298 277 255 261 261 266 269 275 302 31 42 325 327 326 318 314 315 307 285 289 294 291 292 307 314 312 312 311 309 308 307 305 302 302 302 302 303 305 308 309 308 308
275 293 256 264 287 297 282 284 287 269 139 123 351 324 314 316 301 303 307 312 300 291 293 293 297 299 292 298 308 307 306 305 303 301 300 299 300 299 299 299 299 299 301 302
250 246 276 292 290 290 260 280 244 213 177 174 337 329 305 309 318 313 307 300 297 291 291 295 303 298 309 313 312 306 298 300 302 302 300 299 297 295 294 294 293 292 293 293
196 248 263 309 64 44 26 270 174 171 169 316 322 293 294 313 306 302 303 302 303 285 291 299 300 309 313 312 311 307 303 298 294 290 289 292 295 296 295 292 290 289 286 285
236 248 259 274 96 137 249 295 156 168 269 289 278 276 291 297 294 294 299 302 293 295 293 301 308 311 311 312 310 307 302 300 297 294 289 285 286 285 287 287 287 288 286 282
238 257 267 84 130 223 285 139 174 257 298 289 281 285 287 293 294 301 295 297 297 298 301 303 307 309 309 310 312 308 306 304 301 299 296 293 289 287 285 283 283 284 286 287
228 243 209 186 250 260 268 276 285 291 293 289 285 277 285 289 287 286 293 298 300 301 303 306 308 311 311 312 312 310 307 306 305 304 302 301 297 292 289 285 281 279 278 279
254 251 260 271 272 273 274 277 285 287 284 277 270 274 281 283 284 288 295 298 300 304 307 309 310 313 314 314 314 311 309 308 308 308 308 307 303 295 289 286 284 281 280 278
256 258 266 263 265 268 270 273 276 282 278 276 265 269 276 280 284 290 295 301 304 306 307 309 314 315 316 317 316 313 311 310 310 309 306 302 296 292 289 286 282 282 280 279
257 260 261 270 277 282 284 283 276 272 265 265 262 269 271 277 286 293 297 301 306 308 310 315 317 316 319 319 317 315 312 310 309 306 302 299 296 294 295 289 288 284 281 278
259 260 263 271 278 283 285 280 269 261 252 255 263 267 273 282 289 293 300 307 310 312 315 318 317 317 324 323 320 314 313 313 312 310 305 299 296 295 295 300 296 290 286 283
259 264 269 268 276 283 274 268 256 252 253 255 258 266 274 284 290 298 305 311 314 314 317 318 319 325 330 323 324 323 319 316 312 309 304 300 297 296 295 294 295 299 305 294
270 265 262 269 269 271 262 254 250 252 256 262 266 271 280 287 293 301 311 314 312 316 320 322 325 330 329 333 329 325 322 321 321 316 310 306 303 300 298 296 295 299 310 315
265 271 269 265 266 263 255 254 258 260 261 263 270 277 283 289 296 306 310 312 314 318 323 325 329 332 336 336 334 328 324 324 327 322 314 311 310 306 304 301 301 305 312 323
266 272 270 264 258 257 258 259 258 262 264 271 278 282 288 295 300 304 310 315 313 317 325 326 332 335 340 340 332 331 331 329 328 326 326 324 320 316 315 313 313 318 324 332
258 260 263 259 248 249 258 264 266 269 274 279 280 284 292 296 300 305 312 312 310 314 324 329 333 334 346 343 339 333 333 333 333 334 335 333 333 332 332 333 329 323 323 323
257 253 251 249 252 256 260 266 271 275 281 286 288 290 291 294 300 304 305 305 308 314 325 330 332 339 351 352 345 340 342 342 343 345 347 348 350 352 351 351 353 352 350 348
243 242 246 254 261 267 272 277 280 283 286 284 284 287 292 297 297 294 294 296 303 311 325 332 333 346 357 356 354 353 350 352 354 357 1 3 4 4 5 7 8 11 15 22
237 249 260 269 274 279 283 283 283 285 286 285 288 290 291 292 289 285 285 287 297 309 322 330 342 351 358 357 1 5 5 3 4 7 11 13 17 22 23 25 27 30 34 40
249 267 280 286 290 292 291 290 290 291 292 291 289 288 287 287 283 275 275 284 297 311 324 336 348 354 356 355 5 10 14 15 13 13 17 23 29 35 38 41 45 47 49 53
277 287 294 297 300 301 303 300 296 295 295 294 290 286 281 280 272 276 279 276 297 311 323 335 342 346 350 356 7 12 16 20 22 26 27 28 31 38 44 49 53 56 57 58
301 306 309 311 312 312 313 311 305 303 299 296 292 285 277 274 270 271 279 292 305 316 323 334 340 342 343 350 0 8 15 19 23 27 31 35 38 40 43 45 48 52 57 63
304 312 321 326 326 323 317 317 316 320 312 309 298 285 279 274 272 269 287 298 310 317 330 336 336 336 338 348 355 360 5 9 12 18 23 28 32 36 39 42 45 47 50 53
334 343 344 342 338 335 334 334 327 320 314 312 294 297 290 286 287 291 298 307 311 322 329 331 332 336 344 349 353 355 356 357 360 3 6 11 16 20 25 30 34 38 40 42
21 2 357 352 352 352 349 343 340 334 328 322 313 304 308 303 302 303 309 313 321 328 330 333 337 340 342 345 348 349 350 351 351 352 355 357 358 359 0 3 5 6 8 9